www.pogodaiklimat.ru

Погода и климат >> Архив погоды >> ОАЭ >> Al Ain Int Airport


ПОГОДА в Al Ain Int Airport

  • Прогноз погоды в Al Ain Int Airport
  • Монитор погоды в Al Ain Int Airport
  • Климат города

АРХИВ ПОГОДЫ в Al Ain Int Airport

Время (UTC), дата Ветер
(напр.,м/с)
 
Видим.   Явления Облачность Т
(С)
Тd
(С)
f
(%)
Тe
(С)
Тes
(С)
Комфортность P
(гПа)
Po
(гПа)
Тmin
(С)
Tmax
(С)
R
(мм)
R24
(мм)
S
(см)
18 9.10 С 4 8000 м пыль ясно +30.7 +21.1 57 +38 +38 очень
душно
1009.7 980.2 +39.7
00 10.10 Ю 5 10 км ясно +29.6 +8.9 27 +29 +29 жарко 1009.1 979.5
06 10.10 ЮВ 4 10 км ясно +33.0 +6.7 19 +31 +38 жарко 1011.8 982.5 +27.5
09 10.10 ЮВ 3 10 км ясно +37.4 +6.9 15 +35 +47 очень
жарко
1008.2 979.4
12 10.10 нст 2 10 км 1/1 1440 м
[Sc]
+38.6 +6.9 15 +36 +41 очень
жарко
1006.3 977.7
18 10.10 В 4 10 км ясно +32.4 +15.3 36 +35 +35 душно 1009.5 980.2 +39.2
21 10.10 В 4 10 км ясно +30.6 +12.3 33 +31 +31 жарко 1009.3 979.8
00 11.10 Ю 6 10 км ясно +28.9 +13.4 39 +31 +31 жарко 1010.0 980.3
03 11.10 ЮВ 3 8000 м пыль ясно +26.8 +13.0 42 +28 +29 жарко 1011.6 981.7
06 11.10 Ю 2 10 км ясно +31.1 +8.4 24 +34 +44 душно 1012.5 983.0 +26.8
09 11.10 С 3 10 км ясно +37.3 +3.6 12 +34 +46 очень
жарко
1009.0 980.1
12 11.10 СВ 3 10 км ясно +37.6 +2.6 11 +34 +38 очень
жарко
1007.4 978.6
21 11.10 В 3 10 км ясно +30.1 0.0 14 +27 +27 жарко 1010.8 981.2
00 12.10 ЮВ 2 6000 м пыль ясно +26.5 +9.6 35 +27 +27 жарко 1010.8 980.9
06 12.10 нст 1 8000 м пыль ясно +32.3 +7.6 22 +31 +44 жарко 1012.7 983.3 +23.2
12 12.10 В 6 10 км ясно +37.4 +3.7 12 +34 +36 очень
жарко
1008.3 979.5
18 12.10 В 3 10 км ясно +30.1 +1.0 15 +27 +27 жарко 1011.5 981.9 +38.4
21 12.10 В 4 10 км ясно +28.2 +3.4 20 +26 +26 жарко 1011.4 981.6
00 13.10 ЮВ 4 10 км ясно +26.3 +1.1 19 +25 +25 комфорт 1012.6 982.6
03 13.10 ЮВ 4 10 км ясно +26.3 +1.1 19 +25 +25 комфорт 1012.6 982.6
06 13.10 ЮВ 3 10 км ясно +30.8 +4.1 18 +29 +38 жарко 1014.9 985.2 +23.8
12 13.10 В 5 10 км 1/0
[Ci fib]
+37.4 -0.3 9 +34 +36 очень
жарко
1010.1 981.2
18 13.10 В 5 10 км ясно +30.6 +3.9 18 +28 +28 жарко 1012.8 983.2 +38.1
21 13.10 ЮВ 6 10 км ясно +29.8 +2.5 17 +27 +27 жарко 1013.0 983.3
06 14.10 Ю 6 10 км 1/0
[Ci fib]
+29.0 +19.5 57 +35 +39 очень
душно
1016.5 986.7 +25.0
09 14.10 Ю 3 10 км ясно +33.8 +13.7 30 +35 +48 очень
жарко
1013.5 984.2
12 14.10 Ю 2 10 км 3/1 1350 м
[Cu hum Ac trans]
+35.8 +12.5 25 +36 +39 очень
жарко
1011.4 982.3
15 14.10 ЮЗ 3 10 км 3/1 1350 м
[Sc Ac trans]
+33.7 +13.0 29 +34 +34 очень
жарко
1012.1 982.8
00 15.10 Ю 2 10 км 4/0
[Ac trans]
+27.3 +16.8 53 +31 +31 душно 1014.2 984.2
03 15.10 В 1 10 км 6/0
[Ac trans]
+26.8 +18.3 60 +32 +32 очень
душно
1015.5 985.4
06 15.10 ЮЗ 2 9000 м мгла 8/0
[Ac trans]
+29.6 +17.7 49 +34 +39 очень
душно
1016.3 986.5 +26.5
09 15.10 нст 2 9000 м мгла 8/0
[Ac trans]
+31.4 +16.1 40 +34 +42 душно 1013.9 984.4
12 15.10 З 3 10 км 8/0
[Ac trans Ci fib]
+32.1 +14.1 34 +34 +36 душно 1012.3 982.9
18 15.10 С 4 10 км 3/0
[Ac trans]
+28.2 +21.6 67 +36 +36 очень
душно
1015.0 985.1 +32.6
21 15.10 С 3 10 км 1/0
[Ac trans]
+26.7 +21.3 72 +34 +34 очень
душно
1014.0 984.0
03 16.10 СВ 3 7000 м мгла 3/0
[Ac trans]
+24.2 +21.8 86 +31 +31 очень
душно
1015.0 984.7
06 16.10 С 2 8000 м пыль ясно +30.9 +17.5 45 +35 +45 очень
душно
1015.1 985.5 +24.1

 

Местоположение метеостанции Al Ain Int Airport (ОАЭ): широта 24.27 долгота 55.60 высота над уровнем моря 262 м.

В архиве по умолчанию представлена погода в Al Ain Int Airport за последнюю неделю. Архивные данные за месяц целиком и за предыдущие месяцы, начиная с января 2011 года, Вы можете получить, выбрав интересующий диапазон дат из раскрывающегося списка и нажав кнопку "Ввод!".


*Определитесь, кто Вы:
робот инопланетянин человек

Внимание! Время в таблицах - всемирное. Для получения местного времени необходимо прибавить поправку, которая в Al Ain Int Airport равна 4 ч.

Смотрите также архив погоды в соседних городах и на ближайших метеорологических станциях:

Погода в Buraimi (Оман) (19 км)
Погода в Qumayra (Оман) (72 км)
Погода в Dubai Al Maktoum Int Airport (ОАЭ) (83 км)
Погода в Abu Dhabi (ОАЭ) (98 км)
Погода в Sohar Majis (Оман) (107 км)
Погода в Dubai (ОАЭ) (112 км)
Погода в Abu Dhabi Bateen Airport (ОАЭ) (117 км)
Погода в Fujairah (ОАЭ) (118 км)
Погода в Sharjah (ОАЭ) (118 км)
Погода в Ibri (Оман) (133 км)

Пояснения к столбцам:

Ветер - указаны скорость ветра в м/с - средняя за 10 мин, порывы в срок и между сроками (в фигурных скобках) и направление, откуда дует ветер: С - северный, СВ - северо-восточный, В - восточный, ЮВ - юго-восточный, Ю - южный, ЮЗ - юго-западный, З - западный, СЗ - северо-западный.
Видимость - горизонтальная дальность видимости в метрах или километрах. При видимости от 1 до 10 км при отсутствии осадков обычно наблюдается дымка, при ухудшении видимости до 1 км и менее - туман. В сухую погоду видимость может ухудшаться дымом, пылью или мглою.
Явления - указаны атмосферные явления, наблюдавшиеся в срок или в последний час перед сроком; фигурными скобками обозначены явления, наблюдавшиеся между сроками (за 1-3 часа до срока); квадратными скобками обозначены град или гололедные отложения с указанием их диаметра в мм.
Облачность - указаны через наклонную черту общая и нижняя облачность в баллах и высота нижней границы облаков в метрах; квадратными скобками обозначены формы облаков: Ci - перистые, Cs - перисто-слоистые, Cc - перисто-кучевые, Ac - высококучевые, As - высокослоистые, Sc - слоисто-кучевые, Ns - слоисто-дождевые, Cu - кучевые, Cb - кучево-дождевые. Подробнее классификацию облаков см. в Атласе облаков (PDF).
T - Температура воздуха - температура, измеренная на высоте 2 м над землей.
Td - Температура точки росы - температура, при понижении до которой содержащийся в воздухе водяной пар достигнет насыщения.
f - Относительная влажность воздуха - влажноcть воздуха, измеренная на высоте 2 м над землей.
Te - Эффективная температура - температура, которую ощущает одетый по сезону человек в тени. Характеристика душности погоды. При расчете учитывается влияние влажности воздуха и скорости ветра на теплоощущения человека.
Tes - Эффективная температура на солнце - температура, которую ощущает человек, с поправкой на солнечный нагрев. Характеристика знойности погоды. Зависит от высоты солнца над горизонтом, облачности и скорости ветра. Ночью, в пасмурную погоду, а также при ветре 12 м/с и более поправка равна нулю.
P - Атмосферное давление - приведенное к уровню моря атмосферное давление.
Po - Атмосферное давление - измеренное на уровне метеостанции атмосферное давление.
Tmin - Минимальная температура - минимум температуры воздуха на высоте 2 м над землей.
Tmax - Максимальная температура - максимум температуры воздуха на высоте 2 м над землей.
R - Количество осадков - Количество выпавших осадков за период времени, мм. При наведении курсора мыши на число - период времени, за который выпало указанное количество осадков.
R24 - Количество осадков - Количество выпавших осадков за 24 часа, мм.
S - Снежный покров - Высота снежного покрова, см. При наведении курсора мыши на число - состояние снежного покрова и степень покрытия местности в баллах.